Tracking 29091 objects as of 17-Jul-2024
HD Live streaming from Space Station
objects crossing your sky now

SL-8 DEB

Track SL-8 DEB now!
10-day predictions


NORAD ID: 29284
Int'l Code: 1981-120N
Perigee: 1,648.5 km
Apogee: 1,705.4 km
Inclination: 83.0 °
Period: 119.8 minutes
Semi major axis: 8047 km
RCS: 0.0077 m2 (small)
Launch date: December 17, 1981
Source: Commonwealth of Independent States (former USSR) (CIS)
Launch site: PLESETSK MISSILE AND SPACE COMPLEX (PKMTR)

Note: This is SATELLITE DEBRIS
Your satellite tracking list
Your tracking list is empty




NASA's NSSDC Master Catalog

Two Line Element Set (TLE):
1 29284U 81120N   24198.35513767  .00000048  00000-0  46204-3 0  9999
2 29284  82.9611 156.3118 0035339 155.9601 358.1891 12.02475221462282
Source of the keplerian elements: AFSPC